Weather History for KSEG - May, 2013

Change the Weather History Date:

Monday, May 13, 2013

  Actual Average (KIPT) Record (KIPT)
Temperature  
Mean Temperature 46 °F 59 °F  
Max Temperature 55 °F 71 °F 90 °F (1991)
Min Temperature 37 °F 47 °F 30 °F (1941)
Degree Days  
Heating Degree Days 19 7  
Month to date heating degree days 112  
Since 1 July heating degree days 5867  
Cooling Degree Days 0 1  
Month to date cooling degree days 8  
Year to date cooling degree days 13  
Moisture  
Dew Point 28 °F    
Average Humidity 54    
Maximum Humidity 86    
Minimum Humidity 34    
Precipitation  
Precipitation 0.00 in 0.12 in 1.54 in (2002)
Month to date precipitation 1.48  
Year to date precipitation 12.73  
Snow  
Snow 0.00 in 0.00 in 0.00 in (2002)
Month to date snowfall 0.0  
Since 1 July snowfall 36.0  
Snow Depth -    
Sea Level Pressure  
Sea Level Pressure 30.08 in    
Wind  
Wind Speed 3 mph (WNW)    
Max Wind Speed 12 mph    
Max Gust Speed 21 mph    
Visibility 10 miles    
Events      
T = Trace of Precipitation, MM = Missing Value Source: NWS Daily Summary

Daily Weather History Graph

Daily Weather History Graph

Search for Another Location

Airport or City:

Trip Planner

Search our weather history database for the weather conditions in past years. The results will help you decide how hot, cold, wet, or windy it might be!

Date:

Astronomy

May. 13, 2013 Rise Set
Actual Time 5:51 AM EDT 8:16 PM EDT
Civil Twilight 5:20 AM EDT 8:47 PM EDT
Nautical Twilight 4:42 AM EDT 9:25 PM EDT
Astronomical Twilight 4:00 AM EDT 10:08 PM EDT
Moon 8:35 AM EDT (5/13) 11:24 PM EDT (5/13)
Length of Visible Light 15h 26m
Length of Day
14h 24m
Waxing Crescent, 12% of the Moon is Illuminated
May 13
Waxing Crescent
May 18
First Quarter
May 25
Full
May 31
Last Quarter
Jun 8
New

Hourly Weather History & Observations

Time (EDT) Temp. Windchill Dew Point Humidity Pressure Visibility Wind Dir Wind Speed Gust Speed Precip Events Conditions
12:53 AM 39.9 °F - 33.1 °F 77% 30.01 in 10.0 mi Calm Calm - N/A   Clear
1:53 AM 37.9 °F - 34.0 °F 86% 30.01 in 10.0 mi Calm Calm - N/A   Clear
2:53 AM 39.0 °F - 32.0 °F 76% 30.02 in 10.0 mi Calm Calm - N/A   Clear
3:53 AM 39.0 °F - 33.1 °F 79% 30.02 in 10.0 mi Calm Calm - N/A   Mostly Cloudy
4:53 AM 39.0 °F - 32.0 °F 76% 30.03 in 10.0 mi Calm Calm - N/A   Clear
5:53 AM 39.9 °F 36.7 °F 28.0 °F 63% 30.05 in 10.0 mi Variable 4.6 mph - N/A   Overcast
6:53 AM 42.1 °F - 32.0 °F 67% 30.06 in 10.0 mi Calm Calm - N/A   Mostly Cloudy
8:53 AM 45.0 °F 42.6 °F 28.9 °F 53% 30.09 in 10.0 mi Variable 4.6 mph - N/A   Mostly Cloudy
9:53 AM 48.0 °F - 26.1 °F 42% 30.09 in 10.0 mi West 8.1 mph 19.6 mph N/A   Partly Cloudy
10:53 AM 48.0 °F - 26.1 °F 42% 30.10 in 10.0 mi Variable 5.8 mph 19.6 mph N/A   Overcast
11:53 AM 48.9 °F - 24.1 °F 38% 30.11 in 10.0 mi Variable 5.8 mph 16.1 mph N/A   Mostly Cloudy
12:53 PM 48.9 °F - 23.0 °F 36% 30.10 in 10.0 mi WNW 10.4 mph - N/A   Overcast
1:53 PM 50.0 °F - 25.0 °F 38% 30.09 in 10.0 mi West 8.1 mph - N/A   Mostly Cloudy
2:53 PM 52.0 °F - 25.0 °F 35% 30.08 in 10.0 mi West 9.2 mph 20.7 mph N/A   Overcast
4:53 PM 55.0 °F - 27.0 °F 34% 30.06 in 10.0 mi NW 11.5 mph 19.6 mph N/A   Overcast
5:53 PM 51.1 °F - 24.1 °F 35% 30.07 in 10.0 mi West 9.2 mph 17.3 mph N/A   Overcast
6:53 PM 50.0 °F - 24.1 °F 36% 30.08 in 10.0 mi NW 11.5 mph 19.6 mph N/A   Overcast
8:53 PM 46.9 °F - 26.1 °F 44% 30.12 in 10.0 mi NW 6.9 mph - N/A   Mostly Cloudy
9:53 PM 45.0 °F 41.8 °F 26.1 °F 48% 30.14 in 10.0 mi NW 5.8 mph - N/A   Partly Cloudy
10:53 PM 43.0 °F 39.5 °F 25.0 °F 49% 30.16 in 10.0 mi WNW 5.8 mph - N/A   Clear
11:53 PM 37.9 °F 35.5 °F 30.9 °F 76% 30.18 in 10.0 mi NNW 3.5 mph - N/A   Clear